Wind_Speed
29 28 28 27 26 27 29 29 29 28 26 24 22 20 17 16 14 12 11 9 9 9 10 10 11 11 11 11 11 11 11 11 11 11 12 12 12 12 12 12 13 13 14 15
29 29 29 28 27 28 29 29 30 29 28 24 22 20 19 18 14 12 11 9 9 10 10 11 10 10 11 11 11 12 11 11 11 12 12 12 12 12 12 13 13 14 15 16
31 30 29 28 27 28 29 29 30 29 26 24 22 21 20 18 15 12 11 11 11 11 11 10 11 11 11 12 12 12 11 11 11 11 11 12 12 12 13 13 14 14 15 16
32 32 33 29 28 28 29 29 30 28 27 26 24 22 21 19 17 15 13 13 12 12 11 11 12 11 12 12 12 12 12 11 11 12 12 12 12 12 12 13 14 14 15 16
33 33 32 31 31 29 29 30 29 28 28 27 25 24 23 22 20 17 15 14 13 13 13 13 13 13 13 12 12 13 13 12 12 12 12 12 12 13 12 13 13 14 15 16
35 35 35 32 32 31 30 30 30 29 29 28 25 24 22 21 20 19 18 17 16 15 15 15 15 14 13 13 13 13 12 12 12 12 13 13 13 14 14 14 14 14 15 15
36 37 36 34 33 34 34 31 29 28 28 29 27 25 24 24 23 20 19 18 17 17 17 16 15 15 14 14 13 13 13 14 14 14 14 14 15 15 15 15 15 15 15 15
37 37 36 34 34 35 33 30 29 29 28 28 26 26 24 23 23 22 20 19 18 18 17 17 16 16 16 15 15 15 15 15 15 15 15 15 16 15 15 16 16 16 16 16
36 36 33 33 33 34 33 31 30 29 28 27 26 26 24 23 23 23 21 21 20 19 19 18 17 17 17 16 16 16 16 16 16 16 16 16 15 15 15 16 16 17 17 17
34 35 33 31 31 32 30 29 28 29 28 26 24 25 24 23 22 21 20 21 21 20 20 19 18 18 17 17 17 17 16 16 17 16 16 15 15 16 16 16 17 16 16 16
32 32 31 29 29 28 28 27 25 26 25 23 23 23 23 22 20 20 20 20 21 21 21 22 20 19 18 19 19 18 17 17 17 16 16 16 16 16 17 17 17 17 17 17
30 30 30 28 28 26 25 25 24 23 21 21 20 20 20 20 20 19 20 20 19 19 20 19 19 18 18 19 19 19 19 19 18 17 17 16 17 17 17 17 17 17 17 18
30 30 29 28 26 25 24 22 21 21 20 19 19 19 20 19 19 19 19 19 19 19 18 18 18 18 19 19 19 19 19 19 18 18 17 17 17 18 17 17 17 18 18 18
28 28 28 26 26 25 22 20 20 20 20 19 19 20 19 19 19 19 19 20 19 19 19 19 19 19 19 20 19 19 19 19 19 19 18 18 18 18 18 18 18 18 18 19
28 28 27 26 25 25 23 20 20 21 21 20 19 19 19 19 19 19 19 19 19 19 18 18 18 18 18 18 19 19 19 19 19 18 18 18 19 19 18 18 18 18 18 19
26 27 26 25 25 24 23 21 20 19 19 19 19 19 18 18 17 18 18 18 18 17 17 18 18 18 17 17 17 18 18 18 18 18 18 18 19 18 17 17 18 19 20 21
25 25 23 23 24 24 23 22 20 19 19 19 19 18 17 17 18 18 18 18 17 17 17 18 18 18 17 17 17 18 18 18 18 18 18 18 18 18 18 19 19 20 21 22
24 24 23 22 22 23 24 22 21 20 19 19 18 18 17 18 18 18 17 17 17 18 17 17 17 17 17 17 17 18 19 19 18 17 17 17 17 18 19 20 20 21 22 23
23 24 24 22 21 21 21 21 20 20 19 18 18 17 17 17 17 17 18 17 18 18 18 18 18 18 18 18 18 18 17 17 17 17 17 18 19 19 19 20 21 21 23 24
21 22 22 21 20 20 19 19 19 19 19 18 18 17 17 17 17 17 17 18 17 17 17 17 17 17 17 17 17 17 16 16 17 17 18 19 19 20 21 21 22 23 25 26
18 19 20 20 20 19 18 18 18 18 18 18 18 17 17 17 17 17 17 17 17 17 17 17 17 16 16 16 16 16 16 17 17 18 19 19 20 21 23 24 24 25 26 27
17 18 19 19 19 18 18 17 17 17 16 16 17 17 16 16 17 17 17 16 16 16 16 16 16 16 16 16 16 16 16 17 18 19 20 20 21 23 23 24 25 26 27 28
18 18 18 18 18 18 17 17 17 16 16 16 16 15 14 14 15 15 16 16 16 15 15 15 16 16 16 16 16 17 18 18 19 20 20 22 22 23 24 25 26 27 28 29
18 18 18 18 18 18 17 16 16 16 16 15 15 14 14 14 15 15 15 15 15 15 15 16 16 16 16 16 17 18 18 19 19 21 22 23 23 23 24 26 27 27 28 29
17 17 17 17 17 17 16 16 16 15 15 14 14 13 13 13 14 14 14 14 15 15 15 15 14 14 15 16 17 18 19 20 21 22 22 22 23 24 25 26 27 28 28 28
17 17 16 16 15 15 15 15 15 14 13 12 12 12 13 13 13 13 14 14 14 14 14 13 14 15 16 17 18 18 19 20 20 20 21 22 23 24 25 26 26 27 27 27
17 17 16 15 14 14 13 13 13 13 13 12 11 11 11 12 12 12 13 13 14 14 14 15 15 16 17 17 18 18 19 19 19 20 21 22 23 24 24 25 25 25 26 26
Wind_Direction
206 207 209 213 215 217 220 223 225 226 231 236 241 245 250 255 260 261 257 254 251 257 260 265 269 271 272 274 279 279 280 280 276 272 272 271 266 260 263 266 266 267 268 270
207 208 211 214 213 215 219 222 224 227 230 235 241 246 249 251 254 258 261 260 261 263 269 275 279 279 276 278 279 280 280 280 277 272 273 270 265 262 265 267 269 270 269 270
208 208 213 217 215 216 219 222 223 226 228 232 241 247 247 248 253 257 259 262 264 265 269 277 279 280 280 279 279 280 278 277 278 276 274 271 269 267 266 269 273 270 270 271
212 210 215 217 218 219 220 221 223 226 228 232 237 242 245 249 251 252 257 260 262 264 268 273 278 282 284 279 278 281 278 277 278 275 274 274 274 272 272 272 273 271 270 272
213 214 217 218 218 219 219 218 222 225 228 233 237 240 244 248 250 254 257 257 258 261 266 272 276 281 283 281 282 283 280 276 279 277 275 274 276 273 273 276 277 274 274 275
217 217 218 219 220 222 222 222 225 229 231 235 238 241 244 246 249 254 256 256 259 263 267 271 274 277 278 279 280 282 280 279 282 281 278 276 275 275 276 279 280 280 280 281
219 220 221 221 221 223 225 227 229 231 234 234 237 240 244 247 251 255 256 257 260 262 264 268 271 274 275 277 278 277 280 282 284 287 283 281 280 278 278 278 279 280 282 282
218 221 221 221 222 223 226 228 231 233 237 235 235 239 245 248 252 254 253 257 261 263 263 266 268 270 272 273 275 276 279 282 285 285 285 283 282 279 278 278 279 279 279 280
219 221 222 223 225 227 228 231 233 234 238 236 235 239 244 246 246 247 251 256 259 263 265 266 267 267 269 270 272 275 279 282 283 284 287 284 283 281 279 278 279 280 279 278
219 220 221 222 223 226 229 231 230 232 237 234 239 241 245 249 247 246 249 255 258 260 263 265 265 266 267 269 271 274 278 283 286 286 288 285 284 280 279 281 282 282 282 282
219 219 219 221 224 228 229 230 231 231 231 233 237 239 245 246 245 246 250 253 257 258 259 262 264 266 268 269 270 273 277 282 286 285 285 285 285 284 281 281 281 278 279 280
222 222 224 224 226 229 232 232 232 229 226 230 235 240 244 244 246 248 251 256 257 257 257 258 262 266 268 269 272 275 277 280 284 283 282 283 284 284 284 284 285 283 281 281
226 226 227 230 228 231 232 229 224 223 226 231 234 239 243 245 249 252 253 253 256 257 256 258 261 264 268 270 273 276 278 279 280 282 282 282 283 284 284 284 285 286 285 284
225 224 226 228 230 231 232 228 224 226 228 231 236 238 239 244 250 252 253 255 256 259 259 259 260 263 266 269 272 274 276 277 279 280 280 281 282 283 283 283 283 284 285 285
227 226 225 228 226 226 227 228 231 230 231 235 237 237 239 244 249 251 254 256 258 259 257 256 259 262 264 267 271 272 274 277 279 279 281 283 284 283 281 282 283 284 285 287
223 221 224 225 224 223 224 229 232 233 236 238 239 241 243 248 249 250 251 255 255 256 257 257 259 261 263 267 271 272 273 277 279 279 280 282 283 281 280 282 284 286 287 289
221 222 224 225 224 225 228 231 234 236 238 238 238 241 244 247 248 249 250 251 252 255 257 257 259 261 263 266 270 272 273 275 278 278 279 280 280 279 280 283 285 286 288 290
221 220 221 222 222 223 226 227 230 233 234 234 236 240 243 245 246 246 249 250 252 253 255 256 259 263 267 268 272 274 274 276 277 278 279 281 281 282 282 283 284 286 289 291
216 217 220 221 220 218 219 222 226 229 231 231 232 235 239 242 242 243 246 249 251 252 254 256 259 264 267 268 272 274 275 275 276 278 279 280 281 282 284 286 287 289 291 293
212 213 212 214 216 216 218 220 222 224 226 228 231 234 238 241 241 242 246 250 251 253 254 257 262 266 268 269 270 271 272 272 274 277 279 280 282 284 287 289 290 291 293 295
207 207 208 209 211 214 214 215 218 221 224 227 230 234 237 239 241 243 245 248 251 252 255 260 263 264 267 270 270 270 272 274 275 276 278 279 282 285 288 290 291 293 295 298
198 199 200 202 206 210 211 212 215 219 222 225 228 233 237 238 240 242 244 246 250 255 258 261 262 266 270 270 270 272 274 275 276 278 280 283 286 288 290 291 293 295 297 299
196 197 199 201 203 208 212 214 216 219 221 224 227 228 230 234 238 241 245 248 253 257 261 264 265 267 268 268 270 274 276 278 280 281 283 286 288 290 292 294 296 298 299 300
196 198 199 201 204 207 209 214 218 219 220 222 223 225 231 236 239 243 248 251 252 256 260 262 265 266 268 270 272 275 279 281 283 284 287 289 291 293 296 298 300 301 301 302
194 196 197 199 204 208 210 211 213 217 218 220 223 228 233 236 239 243 248 251 254 257 260 260 263 267 271 273 276 279 281 284 286 288 290 291 294 297 299 301 302 303 303 304
194 195 195 198 200 203 207 211 214 215 213 215 221 226 228 230 236 243 248 250 251 253 256 261 266 270 274 277 280 282 284 286 289 292 295 297 298 300 301 303 304 305 306 306
190 192 193 193 195 197 200 203 207 209 210 213 218 224 229 232 239 247 250 252 253 256 260 265 269 273 276 278 281 284 287 289 292 294 297 299 301 302 303 304 304 306 307 308
Height
5803 5807 5810 5814 5818 5821 5824 5827 5831 5835 5838 5841 5843 5846 5848 5849 5850 5850 5851 5851 5851 5853 5854 5854 5855 5854 5854 5854 5854 5853 5853 5852 5851 5851 5851 5851 5851 5851 5852 5851 5852 5852 5851 5851
5798 5802 5806 5809 5813 5816 5820 5823 5826 5829 5833 5837 5839 5841 5843 5845 5846 5847 5848 5849 5850 5850 5851 5851 5852 5851 5851 5851 5850 5850 5849 5849 5848 5848 5848 5848 5848 5848 5848 5848 5847 5847 5847 5847
5794 5798 5801 5805 5809 5811 5815 5818 5822 5825 5830 5833 5835 5837 5839 5840 5842 5844 5845 5846 5847 5848 5848 5848 5848 5848 5848 5848 5847 5846 5846 5846 5845 5845 5845 5845 5845 5844 5844 5843 5843 5843 5843 5842
5789 5794 5797 5802 5804 5806 5810 5813 5817 5821 5825 5828 5831 5833 5834 5837 5839 5840 5841 5843 5844 5844 5845 5845 5845 5845 5844 5844 5844 5843 5842 5842 5842 5842 5842 5841 5841 5840 5840 5840 5839 5839 5838 5838
5784 5787 5791 5796 5798 5801 5805 5809 5812 5817 5820 5823 5826 5828 5830 5832 5834 5836 5837 5839 5840 5841 5841 5842 5842 5841 5841 5840 5840 5840 5839 5839 5839 5838 5838 5838 5837 5837 5837 5836 5836 5835 5834 5834
5778 5782 5785 5791 5794 5797 5802 5804 5808 5812 5815 5818 5821 5824 5826 5827 5830 5831 5833 5835 5836 5836 5837 5838 5838 5838 5838 5837 5837 5837 5836 5836 5835 5835 5834 5834 5833 5833 5833 5832 5832 5831 5830 5829
5771 5775 5779 5785 5788 5793 5798 5801 5804 5807 5810 5814 5817 5820 5823 5824 5826 5827 5829 5830 5831 5832 5832 5833 5833 5834 5834 5834 5834 5833 5833 5832 5832 5831 5831 5830 5829 5829 5828 5828 5827 5827 5826 5825
5765 5769 5776 5779 5783 5788 5792 5796 5799 5803 5806 5808 5811 5814 5817 5819 5821 5822 5824 5825 5826 5827 5827 5828 5829 5829 5830 5830 5830 5830 5829 5829 5828 5827 5827 5826 5825 5824 5824 5823 5822 5822 5821 5820
5760 5766 5770 5774 5778 5783 5787 5790 5794 5797 5800 5803 5805 5809 5812 5814 5816 5818 5819 5820 5821 5822 5822 5822 5823 5824 5825 5826 5825 5825 5825 5824 5824 5823 5822 5822 5821 5820 5819 5818 5818 5817 5816 5815
5754 5759 5765 5769 5773 5777 5781 5784 5787 5791 5793 5797 5800 5803 5807 5809 5810 5812 5814 5815 5815 5816 5817 5818 5818 5819 5820 5821 5821 5821 5820 5820 5819 5819 5818 5817 5816 5815 5815 5814 5813 5812 5811 5810
5750 5755 5760 5764 5768 5772 5775 5778 5781 5785 5788 5792 5795 5797 5800 5803 5805 5806 5808 5809 5809 5810 5811 5812 5813 5814 5814 5815 5815 5815 5815 5815 5815 5814 5813 5813 5812 5811 5810 5809 5808 5807 5806 5805
5746 5751 5755 5759 5763 5767 5770 5773 5776 5779 5783 5786 5789 5792 5794 5796 5799 5801 5802 5803 5803 5804 5805 5806 5807 5808 5809 5809 5810 5810 5810 5810 5809 5809 5808 5808 5807 5806 5805 5804 5803 5802 5801 5800
5741 5745 5750 5754 5758 5761 5764 5768 5771 5775 5778 5782 5785 5787 5789 5791 5793 5795 5796 5797 5798 5799 5800 5801 5801 5803 5803 5804 5804 5804 5804 5804 5804 5804 5803 5803 5802 5801 5800 5799 5798 5797 5796 5795
5735 5740 5745 5748 5752 5756 5760 5764 5767 5770 5774 5777 5779 5781 5784 5786 5787 5789 5791 5792 5792 5793 5794 5795 5796 5797 5798 5799 5799 5799 5799 5799 5799 5798 5798 5797 5796 5795 5795 5794 5793 5792 5791 5789
5729 5734 5740 5743 5746 5751 5755 5759 5763 5766 5769 5772 5774 5776 5778 5780 5781 5783 5785 5786 5787 5788 5789 5790 5791 5792 5793 5793 5794 5794 5794 5793 5793 5793 5792 5792 5791 5790 5789 5788 5787 5786 5785 5783
5724 5729 5734 5738 5741 5746 5750 5755 5758 5761 5764 5766 5769 5771 5773 5775 5776 5778 5780 5781 5782 5783 5784 5785 5786 5787 5788 5788 5788 5788 5788 5788 5788 5787 5787 5786 5785 5784 5783 5782 5781 5780 5779 5777
5720 5724 5729 5733 5737 5741 5745 5750 5753 5756 5758 5761 5763 5766 5768 5770 5772 5773 5775 5776 5777 5778 5779 5781 5781 5782 5783 5783 5783 5783 5783 5783 5782 5782 5781 5780 5779 5779 5778 5777 5775 5774 5772 5770
5715 5720 5724 5728 5732 5736 5740 5744 5748 5751 5753 5756 5758 5761 5763 5765 5767 5769 5770 5771 5772 5773 5774 5776 5777 5777 5778 5778 5778 5778 5778 5777 5777 5776 5776 5775 5774 5773 5772 5771 5769 5767 5766 5764
5710 5715 5720 5724 5727 5731 5735 5739 5742 5746 5749 5751 5754 5756 5758 5760 5762 5764 5765 5766 5767 5769 5770 5771 5772 5772 5773 5773 5773 5772 5772 5772 5771 5771 5770 5769 5768 5767 5766 5764 5763 5761 5759 5757
5706 5711 5715 5719 5723 5727 5731 5734 5738 5741 5744 5747 5749 5751 5754 5756 5757 5759 5760 5761 5762 5764 5765 5766 5766 5767 5767 5767 5767 5767 5767 5766 5766 5766 5765 5764 5762 5761 5759 5758 5756 5754 5752 5749
5703 5707 5711 5715 5719 5723 5727 5730 5733 5736 5739 5742 5744 5747 5749 5751 5752 5754 5755 5756 5758 5759 5760 5761 5761 5762 5762 5762 5762 5762 5761 5761 5760 5760 5759 5758 5756 5755 5753 5751 5749 5746 5744 5741
5700 5704 5708 5712 5716 5720 5723 5726 5729 5732 5735 5738 5740 5742 5744 5746 5748 5749 5751 5752 5753 5754 5755 5756 5756 5757 5757 5757 5757 5756 5756 5756 5755 5754 5753 5751 5750 5748 5746 5744 5741 5739 5736 5733
5698 5701 5705 5709 5713 5717 5720 5723 5726 5729 5732 5734 5737 5739 5740 5742 5744 5745 5747 5748 5749 5750 5751 5751 5751 5752 5752 5752 5752 5751 5751 5750 5749 5748 5746 5745 5743 5741 5739 5736 5734 5731 5728 5725
5695 5699 5703 5706 5710 5714 5717 5720 5723 5726 5728 5731 5733 5735 5737 5739 5740 5741 5742 5744 5745 5746 5746 5747 5747 5747 5747 5747 5746 5746 5745 5744 5743 5741 5740 5738 5736 5734 5732 5729 5726 5723 5720 5716
5693 5697 5701 5704 5708 5711 5714 5717 5720 5723 5725 5728 5730 5732 5733 5735 5736 5737 5738 5739 5740 5741 5741 5742 5742 5742 5742 5742 5741 5740 5739 5738 5737 5735 5733 5731 5729 5727 5724 5721 5718 5715 5712 5708
5692 5696 5699 5702 5705 5709 5712 5715 5717 5720 5722 5725 5726 5728 5730 5731 5733 5734 5734 5735 5736 5736 5737 5737 5737 5737 5737 5736 5735 5734 5733 5732 5730 5728 5726 5724 5722 5720 5717 5714 5711 5708 5704 5701
5691 5694 5698 5701 5704 5707 5710 5713 5715 5717 5720 5722 5724 5725 5727 5728 5729 5730 5731 5731 5732 5732 5732 5732 5732 5732 5731 5731 5730 5729 5727 5726 5724 5722 5720 5718 5715 5713 5710 5707 5704 5701 5697 5694